Probability
24 27 32 37 43 49 56 58 55 50 42 31 22 15 8 4 2 1 0 0 0 0 0 0 2 9 22 32 35 34 34 33 25 18 17 19 19 15 11 8 6 3 1
18 20 25 30 35 41 48 53 53 48 40 30 22 14 7 3 2 1 0 0 0 0 0 0 1 7 17 25 28 28 28 26 21 15 13 13 13 11 8 6 3 1 1
9 11 15 20 26 31 36 43 46 42 36 28 22 14 7 3 2 1 0 0 0 0 0 0 1 3 9 15 18 20 19 18 16 13 8 7 6 5 4 2 1 0 0
4 6 9 13 17 22 26 31 35 35 30 24 20 14 8 4 2 1 0 0 0 0 0 0 0 1 4 8 12 14 14 13 13 11 7 3 2 1 1 0 0 0 0
1 2 4 6 8 11 15 19 25 26 23 18 14 11 7 4 2 1 0 0 0 0 0 0 0 0 1 3 6 10 11 11 11 8 4 2 1 0 0 0 0 0 0
0 0 1 1 2 3 6 9 14 18 19 16 11 8 5 3 1 0 0 0 0 0 0 0 0 0 0 1 2 4 6 7 7 4 1 0 0 0 0 0 0 0 0
0 0 0 0 0 0 1 3 7 11 15 15 10 5 3 2 1 0 0 0 0 0 0 0 0 0 0 0 0 1 1 2 3 2 1 0 0 0 0 0 0 0 0
0 0 0 0 0 0 0 1 3 6 9 10 7 3 1 1 0 0 0 0 0 0 0 0 0 0 0 0 0 0 0 0 0 0 0 0 0 0 0 0 0 0 0
0 0 0 0 0 0 0 1 1 2 4 4 3 1 0 0 0 0 0 0 0 0 0 0 0 0 0 0 0 0 0 0 0 0 0 0 0 0 0 0 0 0 0
0 0 0 0 0 0 0 0 0 1 1 1 2 1 0 0 0 0 0 0 0 0 0 0 0 0 0 0 0 0 0 0 0 0 0 0 0 0 0 0 0 0 0
0 0 0 0 0 0 0 0 0 0 0 0 1 1 0 0 0 0 0 0 0 0 0 0 0 0 0 0 0 0 0 0 0 0 0 0 0 0 0 0 0 0 0
0 0 0 0 0 0 0 0 0 0 0 0 0 0 0 0 0 0 0 0 0 0 0 0 0 0 0 0 0 0 0 0 0 0 0 0 0 0 0 0 0 0 0
0 0 0 0 0 0 0 0 0 0 0 0 0 0 0 0 0 0 0 0 0 0 0 0 0 0 0 0 0 0 0 0 0 0 0 0 0 0 0 0 0 0 0
0 0 0 0 0 0 0 0 0 0 0 0 0 0 1 1 1 0 0 0 0 0 0 0 0 0 0 0 0 0 0 0 0 0 0 0 0 0 0 0 0 0 0
0 0 0 0 0 0 0 0 0 0 0 0 0 0 1 1 1 0 0 0 0 0 0 0 0 0 0 0 0 0 0 0 0 0 0 0 0 0 0 0 0 0 0
0 0 0 0 0 0 0 0 0 0 0 0 0 0 0 0 0 0 0 0 0 0 0 0 0 0 0 0 0 0 0 0 0 0 0 0 0 0 0 0 0 0 0
0 0 0 0 0 0 0 0 0 0 0 0 0 0 0 0 0 0 0 0 0 0 0 0 0 0 0 0 0 0 0 0 0 0 0 0 0 0 0 0 0 0 0
0 0 0 0 0 0 0 0 0 0 0 0 0 0 0 0 0 0 0 0 0 0 0 0 0 0 0 0 0 0 0 0 0 0 0 0 0 0 0 0 0 0 0
0 0 0 0 0 0 0 0 0 0 0 0 0 0 0 0 0 0 0 0 0 0 0 0 0 0 0 0 0 0 0 0 0 0 0 0 0 0 0 0 0 0 0
0 0 0 0 0 0 0 0 0 0 0 0 0 0 0 0 0 0 0 0 0 0 0 0 0 0 0 0 0 0 0 0 0 0 0 0 0 0 0 0 0 0 0
0 0 0 0 0 0 0 0 0 0 0 0 0 0 0 0 0 0 0 0 0 0 0 0 0 0 0 0 0 0 0 0 0 0 0 0 0 0 0 0 0 0 0
0 0 0 0 0 0 0 0 0 0 0 0 0 0 0 0 0 0 0 0 0 0 0 0 0 0 0 0 0 0 0 0 0 0 0 0 0 0 0 0 0 0 0
0 0 0 0 0 0 0 0 0 0 0 0 0 0 0 0 0 0 0 0 0 0 0 0 0 0 0 0 0 0 0 0 0 0 0 0 0 0 0 0 0 0 0
0 0 0 0 0 0 0 0 0 0 0 0 0 0 0 0 0 0 0 0 0 0 0 0 0 0 0 0 0 0 0 0 0 0 0 0 0 0 0 0 0 0 0
0 0 0 0 0 0 0 0 0 0 0 0 0 0 0 0 0 0 0 0 0 0 0 0 0 0 0 0 0 0 0 0 0 0 0 0 0 0 0 0 0 0 0
0 0 0 0 0 0 0 0 0 0 0 0 0 0 0 0 0 0 0 0 0 0 0 0 0 0 0 0 0 0 0 0 0 0 0 0 0 0 0 0 0 0 0
Wind_Speed
10 9 9 9 9 9 9 10 10 10 9 9 8 8 8 8 8 8 9 9 10 9 9 9 10 10 7 7 7 7 7 7 5 3 2 4 5 7 7 7 8 8 8
11 10 10 10 10 10 10 10 10 10 10 10 9 9 8 8 8 8 9 9 9 9 8 8 8 6 6 6 5 5 5 6 6 7 4 4 5 7 8 7 7 7 8
11 12 11 11 11 11 11 11 10 11 11 10 10 9 9 8 7 7 7 7 7 7 7 7 6 5 4 3 3 3 3 5 6 8 6 4 4 6 8 8 8 6 8
12 12 12 12 12 12 12 11 11 11 11 11 11 10 9 8 7 6 6 5 5 5 5 5 5 3 2 1 1 3 4 6 8 8 8 6 5 6 6 7 7 5 6
12 12 12 12 12 12 12 12 12 11 11 11 11 11 10 8 6 5 5 4 4 4 3 3 4 3 4 2 3 4 6 6 7 8 8 7 7 6 6 6 8 7 6
14 14 13 12 13 12 13 12 12 11 11 10 11 11 11 8 4 2 6 5 3 3 2 2 1 3 6 7 8 8 7 8 9 8 7 8 8 7 6 6 7 7 6
15 15 14 14 14 13 13 13 13 12 11 10 11 12 11 8 8 7 6 6 4 1 0 0 2 4 5 7 10 12 12 11 9 7 10 9 8 7 7 7 5 5 6
16 16 15 15 15 14 14 14 13 11 10 9 10 11 11 9 11 9 7 7 4 3 2 3 4 5 6 8 10 11 10 10 8 8 9 8 8 6 5 7 8 8 7
17 17 16 16 16 16 15 14 13 12 11 10 9 10 11 9 12 11 9 6 5 5 4 4 5 8 8 8 11 12 11 10 13 16 14 13 12 8 3 6 7 7 8
18 17 17 16 17 17 16 15 13 11 11 10 9 9 10 9 12 13 11 7 6 6 5 5 6 8 8 6 10 11 12 10 11 12 11 10 10 7 4 3 4 5 7
18 18 17 17 17 17 16 14 13 12 11 11 9 8 9 9 11 14 13 7 7 7 7 6 7 10 8 5 6 9 11 10 10 10 9 9 8 6 6 5 4 3 4
18 18 17 17 16 15 15 14 13 12 12 11 9 8 7 8 10 13 13 10 5 7 7 7 9 11 8 6 7 11 10 8 8 8 8 7 7 7 7 7 8 9 8
18 18 17 17 16 15 15 15 13 11 10 9 7 6 6 6 8 12 14 10 6 5 6 12 14 13 11 8 11 11 8 6 7 7 8 7 7 8 8 7 8 7 7
18 17 16 16 15 15 12 12 11 10 10 8 7 6 5 5 7 9 11 10 9 8 9 14 14 10 7 11 10 8 6 6 6 7 8 8 8 7 7 7 7 7 7
18 16 15 14 14 13 12 11 12 11 10 9 7 6 6 7 8 12 12 12 12 11 12 11 11 11 10 10 10 8 7 7 7 8 8 8 8 7 6 5 4 5 6
15 15 12 11 10 10 11 11 11 13 11 11 11 10 7 8 10 12 13 13 14 16 14 12 11 11 11 11 10 9 8 8 8 8 8 8 7 7 7 6 5 5 5
15 13 11 11 10 10 10 10 10 10 11 12 13 13 11 9 12 13 13 14 17 18 12 11 12 11 11 11 10 10 9 9 8 8 8 8 7 7 7 6 5 5 5
14 13 12 10 10 10 10 10 9 9 8 6 8 11 11 12 14 16 17 15 12 13 12 11 12 11 11 11 10 10 10 10 8 8 8 8 7 7 6 6 5 5 5
12 10 9 9 9 10 10 10 9 9 8 6 4 5 9 12 14 18 20 14 14 14 12 11 11 11 11 10 10 10 10 10 9 8 8 8 7 7 6 6 6 4 2
10 13 13 10 10 9 9 9 8 8 7 6 5 4 7 9 10 13 14 13 14 14 12 11 11 11 11 11 10 10 10 10 10 9 9 8 7 7 7 6 6 6 4
8 9 13 11 9 8 8 8 7 7 6 5 5 7 11 11 12 15 14 13 13 14 12 11 11 12 11 11 11 11 12 11 10 10 9 9 8 7 6 6 6 5 4
7 7 7 8 8 7 7 7 6 6 6 5 4 8 13 11 12 14 14 13 13 12 12 11 11 11 11 11 11 11 11 11 11 10 9 9 8 8 7 6 6 5 4
7 7 7 7 7 6 6 5 4 5 5 4 5 8 10 10 12 13 14 13 12 12 12 11 11 11 11 11 11 11 11 11 10 10 10 9 8 8 7 7 7 6 5
6 6 7 6 5 4 4 4 3 4 4 4 7 9 10 10 12 14 13 12 12 12 12 11 11 14 16 12 11 11 10 10 11 10 12 9 9 8 7 7 8 8 7
5 5 5 4 4 3 3 3 2 2 2 4 7 9 10 10 11 13 12 12 13 12 13 12 11 13 17 17 14 11 9 7 5 7 10 9 10 9 8 8 8 8 8
4 4 3 3 3 3 2 1 1 2 3 5 7 9 10 10 11 12 12 11 12 11 12 11 13 14 16 16 16 12 10 9 6 3 6 9 10 10 10 9 10 9 9
Wind_Direction
342 331 321 313 304 292 278 270 264 259 256 255 259 266 273 279 285 289 293 297 293 292 288 280 274 270 260 249 240 232 224 215 206 169 145 138 142 138 131 129 132 129 113
340 331 324 319 313 304 295 285 273 261 254 251 254 260 267 274 282 290 296 303 303 302 300 293 285 275 261 249 234 223 211 196 182 158 143 133 138 135 127 129 125 120 114
333 328 325 323 319 312 304 296 283 269 258 252 249 253 261 269 276 285 292 300 305 306 307 303 295 286 270 252 220 198 185 170 161 147 140 131 133 133 129 121 112 114 118
323 320 320 319 318 314 307 301 291 277 264 254 248 248 254 259 264 273 283 295 303 312 319 319 312 299 289 238 161 144 143 141 142 138 135 135 131 134 134 132 125 128 125
312 311 311 311 313 313 312 306 298 285 271 259 251 246 245 246 249 260 265 273 292 306 325 345 359 22 30 54 111 128 130 131 133 133 134 133 135 142 142 141 129 128 120
304 303 303 303 306 309 311 309 303 292 280 266 253 247 241 239 165 223 269 259 272 287 315 2 54 72 73 75 80 88 107 127 133 132 131 131 131 133 131 140 141 144 134
301 301 301 302 302 305 307 307 304 300 289 273 256 249 241 221 171 198 242 259 246 250 226 130 91 100 116 109 94 87 79 80 98 119 124 126 129 132 141 144 140 129 112
298 297 298 298 298 301 302 302 302 300 293 282 265 252 243 215 181 196 215 234 221 186 159 129 120 124 114 115 110 100 95 86 93 106 109 110 113 118 125 119 118 119 119
296 296 297 297 297 296 295 296 297 295 289 282 270 255 242 216 186 191 204 209 188 170 155 134 132 127 114 115 114 108 102 92 73 75 81 84 77 70 89 141 151 150 135
297 296 295 294 292 291 290 290 290 290 286 281 272 257 242 225 188 189 201 202 178 164 150 138 119 123 133 133 128 123 119 117 117 110 104 108 104 93 65 129 153 144 136
295 294 290 289 287 284 282 281 282 283 283 279 269 259 245 226 188 188 198 205 179 171 160 155 131 125 133 127 132 127 126 130 129 126 123 121 119 117 110 90 57 82 111
292 290 287 285 284 283 282 279 278 278 278 273 264 257 242 221 197 190 194 209 200 174 164 149 129 132 129 125 115 117 129 147 139 134 130 128 125 114 101 90 75 69 67
289 286 284 283 281 279 277 275 273 270 267 267 260 254 239 214 188 181 186 190 195 182 143 115 126 135 135 124 121 135 160 161 143 140 134 127 114 109 115 115 110 108 108
285 284 282 280 278 277 274 271 269 269 267 262 256 251 243 217 192 179 179 176 168 159 133 120 128 145 145 123 141 167 181 150 147 137 130 127 130 142 146 143 145 149 136
284 280 279 277 276 277 273 269 269 267 265 265 263 252 238 222 199 183 177 177 178 168 150 151 157 160 161 158 162 164 155 148 148 139 139 143 145 141 136 133 139 142 133
281 278 276 275 276 276 276 274 259 253 250 234 237 244 243 229 189 178 183 172 162 154 162 166 168 170 168 164 162 160 161 157 152 148 149 149 146 143 140 144 149 136 124
278 278 276 275 275 274 272 271 274 260 237 229 227 225 223 212 184 169 167 157 154 159 176 172 172 172 168 165 165 165 161 153 156 157 154 152 150 148 147 147 143 136 128
280 277 273 270 270 270 269 267 265 266 264 251 225 216 207 195 180 163 152 150 161 179 187 176 174 172 170 169 168 164 157 155 164 162 157 157 157 156 153 152 146 142 138
278 274 270 268 265 264 264 263 261 260 257 254 241 202 185 176 168 160 159 173 174 186 189 179 175 173 172 170 167 165 162 162 164 166 161 163 164 163 160 156 136 127 170
275 271 270 266 262 261 260 260 257 256 253 240 227 187 158 159 161 166 179 185 179 186 188 179 175 173 173 170 168 170 168 163 165 175 167 170 172 170 166 165 159 167 172
271 266 265 265 260 257 256 257 256 255 249 232 219 179 169 171 167 171 182 187 183 183 184 179 174 175 174 170 172 176 175 170 173 177 172 175 178 178 177 175 175 181 173
270 265 261 261 260 256 256 256 252 253 245 228 204 169 172 175 169 173 183 186 183 181 180 181 177 177 176 175 176 179 181 179 178 180 179 179 181 185 188 188 187 185 187
270 264 262 261 261 253 250 252 251 249 234 220 178 162 172 175 170 174 179 182 180 177 178 181 181 179 176 177 180 184 185 184 182 181 185 185 186 190 194 196 200 204 208
276 268 263 259 255 249 248 251 249 240 213 185 164 162 169 171 170 172 176 175 174 176 177 179 184 182 177 178 183 190 191 185 184 185 193 196 196 198 201 204 212 214 216
275 263 259 258 258 259 256 253 238 211 193 161 155 160 165 166 168 168 170 170 171 175 177 179 184 184 182 186 190 193 162 150 180 193 190 205 210 211 216 218 220 222 227
271 263 257 251 254 255 246 231 200 183 173 154 154 160 163 164 165 164 166 169 172 174 178 182 187 186 184 190 194 177 145 151 169 207 223 210 213 218 220 226 228 230 230